EHI
16 13 15 13 5 1 0 0 0 0 0 0 0 0 0 0 0 0 0 0 0 0 0 0 0 0 0 0 0 0 0 0 0 0 0 1 2 2 1 0 1 0 0
18 16 18 15 7 2 0 0 0 0 0 0 0 0 0 0 0 0 0 0 0 0 0 0 0 0 0 0 0 0 0 0 0 0 0 0 1 1 0 0 1 1 0
17 14 15 15 9 4 2 1 1 1 1 2 1 1 0 0 0 0 0 0 0 0 0 0 0 0 0 0 0 0 0 0 0 0 0 0 0 1 1 1 1 1 1
13 11 12 14 11 7 5 4 2 2 3 3 3 2 1 0 0 0 0 0 0 0 0 0 0 0 0 0 0 0 0 0 0 1 1 1 3 4 2 2 2 1 0
16 15 16 17 15 11 8 5 3 3 3 3 3 3 1 0 0 0 0 0 0 0 0 0 0 0 0 0 0 0 0 0 1 3 3 3 7 8 5 3 3 1 1
21 20 20 22 20 15 10 5 2 1 1 2 3 3 2 1 0 0 0 0 0 0 0 0 0 0 0 0 0 0 0 0 1 2 2 6 12 14 9 5 3 2 2
22 20 21 23 21 17 13 7 3 1 1 1 2 3 3 2 1 0 0 0 0 0 0 0 0 0 0 0 0 0 0 0 1 1 3 9 19 20 14 8 5 3 2
20 20 20 20 19 18 15 11 7 4 3 1 1 2 2 2 1 0 0 0 0 0 0 0 0 0 0 0 0 0 0 0 0 1 3 13 24 24 14 8 5 2 1
20 21 18 15 14 15 14 11 9 8 7 3 1 1 1 1 0 0 0 1 1 0 0 0 0 0 0 0 1 1 1 0 0 0 4 16 28 25 14 8 4 1 0
25 25 21 15 11 9 8 8 8 8 8 5 3 2 2 1 1 1 2 4 4 2 1 0 0 0 0 1 2 2 1 0 1 2 7 21 32 27 17 10 4 1 0
34 31 25 19 12 7 5 7 8 7 7 7 7 7 6 4 3 3 8 12 11 6 3 1 1 2 2 2 3 4 3 2 3 5 15 29 35 28 19 14 8 2 0
39 35 28 25 21 13 10 11 10 9 11 11 12 14 13 10 7 9 16 19 15 9 5 3 4 5 5 4 5 6 5 5 5 7 18 32 36 28 20 16 12 4 1
42 36 31 31 29 24 21 18 13 13 16 18 19 22 21 19 16 17 23 23 16 10 7 6 7 8 7 6 7 8 7 6 6 7 17 30 33 26 19 16 13 6 2
44 41 38 37 35 34 31 25 18 18 22 25 28 29 27 26 24 22 24 24 19 14 11 11 11 10 8 7 8 9 8 6 3 6 17 28 29 23 17 15 12 6 3
47 48 48 45 41 41 40 35 28 27 29 33 36 34 30 28 27 25 25 24 21 17 15 15 14 12 9 8 8 8 6 4 3 8 18 26 25 20 16 13 10 5 3
54 55 53 48 46 47 47 43 37 34 34 36 37 33 29 27 27 26 25 23 20 18 17 15 15 13 10 6 5 4 3 3 6 11 17 22 21 18 15 11 8 5 3
58 57 52 46 47 49 48 45 41 36 36 36 34 29 24 22 22 22 21 18 17 17 16 15 16 15 10 5 3 3 4 5 8 12 14 16 18 16 13 10 8 6 4
59 58 53 47 48 48 45 43 41 39 38 35 31 25 18 15 14 14 13 13 14 14 13 13 16 15 9 5 4 4 5 7 10 10 9 12 15 15 12 10 10 9 7
60 59 54 50 49 46 42 40 40 39 37 32 26 21 16 12 10 9 9 10 11 10 9 9 12 12 9 5 4 4 5 8 10 9 7 9 13 13 10 10 10 9 8
61 59 55 52 50 46 40 37 36 34 32 26 22 17 13 10 8 6 6 6 7 5 4 4 5 6 6 4 2 2 4 6 8 8 7 8 9 9 8 8 9 8 7
59 58 55 52 50 46 41 36 32 30 27 23 18 13 9 6 5 4 4 3 3 2 1 1 1 2 2 3 2 2 2 3 4 5 6 6 6 6 6 7 8 7 5
54 52 50 47 45 42 37 32 28 25 23 18 14 11 6 4 3 4 4 2 1 1 0 0 0 0 1 2 2 1 0 1 1 3 4 5 4 4 4 5 7 7 5
44 41 39 39 38 35 30 26 24 21 17 13 11 8 5 3 3 4 4 1 0 1 1 1 0 0 1 1 1 0 0 0 0 2 4 4 3 3 4 5 6 6 6
34 33 33 33 32 29 25 23 20 17 14 11 9 6 4 3 3 3 2 1 1 2 3 2 2 1 0 0 0 0 0 0 0 1 2 3 2 2 3 3 4 4 5
31 31 31 30 28 24 22 20 18 15 13 12 9 6 4 3 2 1 1 2 3 4 5 5 4 3 1 1 0 0 0 0 0 0 1 1 1 1 1 1 2 2 2
30 30 29 27 24 21 20 19 16 15 14 12 8 6 4 3 1 0 0 2 4 6 6 6 6 5 3 2 1 0 0 0 0 0 0 0 0 0 0 0 0 1 0
Wind_Speed
16 16 15 13 12 11 11 11 11 11 10 10 9 8 8 8 8 8 7 7 7 7 6 6 5 5 6 6 6 6 6 6 6 6 6 7 8 7 7 6 4 7 10
19 16 15 13 12 12 11 11 11 10 10 9 9 8 7 7 6 6 6 5 5 5 5 5 4 4 4 5 5 4 4 3 2 2 3 5 6 6 6 6 7 7 9
18 15 15 13 13 12 12 11 11 10 10 9 8 7 6 6 5 5 4 4 4 4 4 4 4 3 4 4 3 3 2 2 2 2 4 3 6 7 7 8 9 8 7
17 14 14 14 13 12 12 11 11 10 10 9 8 7 6 5 4 4 3 3 3 2 2 3 3 3 3 2 2 2 3 4 5 7 5 4 5 9 8 7 7 6 6
15 14 15 14 13 12 12 11 10 10 9 8 7 6 5 4 3 3 2 2 2 2 2 2 2 2 2 2 2 3 4 6 8 9 7 1 5 11 9 8 6 5 5
15 15 14 14 13 12 11 10 9 9 8 7 6 5 5 4 3 2 1 1 1 1 1 1 1 2 2 2 3 4 6 7 9 9 5 2 6 10 10 8 6 5 5
15 15 14 14 13 11 10 9 8 8 7 6 5 5 4 3 2 1 0 0 1 1 2 2 2 2 3 4 4 5 7 9 9 8 4 2 8 12 10 9 7 6 5
15 15 14 13 13 11 10 9 8 7 7 6 5 4 3 2 2 1 1 1 1 2 2 3 3 4 4 5 5 6 7 9 9 8 3 3 10 12 11 9 7 6 5
15 15 12 12 11 11 10 9 8 7 6 5 4 3 3 3 3 3 2 1 1 2 3 4 4 5 5 6 7 7 8 9 8 6 4 2 9 10 10 9 7 6 6
13 13 11 11 10 9 9 9 9 7 6 5 4 4 4 5 6 6 5 4 4 4 5 5 6 6 7 8 9 9 9 8 7 5 2 3 8 8 8 8 7 6 6
11 10 10 11 9 8 8 9 8 7 6 5 4 5 5 4 5 5 6 6 6 6 6 7 8 8 9 9 10 10 8 5 5 2 1 6 6 6 6 6 5 5 6
11 9 8 9 8 7 6 7 5 5 5 4 3 3 3 3 3 2 4 6 7 8 8 9 10 9 8 5 6 8 4 6 3 0 2 8 6 6 5 4 4 5 6
10 8 8 8 6 5 4 5 2 2 3 3 2 2 2 2 2 0 1 2 4 6 4 4 6 4 4 2 2 2 3 2 1 1 3 7 6 4 4 4 4 5 6
9 8 7 7 6 4 4 3 2 1 1 1 1 0 1 1 1 1 1 0 1 1 1 2 2 2 3 3 3 2 2 1 0 1 3 6 6 4 3 3 3 4 5
9 8 7 6 5 4 4 1 2 2 1 2 1 1 2 1 2 2 2 2 2 2 1 2 3 3 3 3 3 2 2 2 1 0 1 4 5 4 3 3 3 4 4
8 7 7 6 5 4 3 2 2 1 1 2 2 2 2 2 2 3 2 2 2 2 2 2 3 3 3 2 3 3 2 2 1 1 1 2 3 3 3 3 3 3 4
9 7 6 6 5 4 3 1 2 1 2 2 2 3 3 4 3 3 3 2 3 3 2 2 3 2 3 3 2 2 2 2 2 2 1 1 1 2 2 2 2 2 3
8 7 5 5 6 4 3 2 2 2 2 2 3 3 3 4 4 3 3 3 3 3 2 2 1 2 3 3 3 2 2 2 2 2 2 1 2 2 2 2 2 2 2
7 6 5 4 5 4 3 2 2 2 3 2 3 3 3 3 3 2 2 2 4 3 2 3 2 2 3 3 3 3 2 2 2 2 1 1 1 1 2 3 2 2 3
7 6 6 5 4 3 3 2 1 2 2 2 3 2 3 2 3 3 2 2 3 2 2 2 3 3 2 2 3 3 2 2 1 1 1 0 1 1 1 2 2 1 2
7 6 5 4 4 3 2 1 1 1 1 2 2 3 2 2 3 2 3 2 3 2 2 3 3 4 3 1 2 2 2 2 1 1 0 0 1 0 1 1 1 1 1
7 6 5 4 3 2 2 1 1 1 1 2 2 2 2 2 3 3 3 3 3 2 2 3 3 3 3 2 2 2 2 1 0 0 0 1 1 1 1 2 1 1 1
7 6 5 4 3 2 2 2 1 1 1 1 1 1 1 1 2 2 3 3 3 3 2 3 3 3 3 3 2 2 2 1 1 0 0 1 0 0 0 1 1 1 1
7 6 5 4 3 3 2 2 1 1 1 1 1 1 1 1 2 2 3 3 3 3 3 3 3 3 3 3 2 2 2 2 1 1 1 0 0 0 1 1 1 2 1
8 7 5 4 3 3 2 2 1 1 1 1 1 1 0 1 1 2 2 3 3 2 3 3 3 3 3 3 3 3 3 2 2 2 2 1 0 0 1 1 1 1 2
8 7 6 5 4 4 3 2 1 1 1 1 1 1 0 0 1 2 3 3 3 3 3 3 3 3 3 3 3 3 3 2 2 2 2 2 1 1 1 1 1 1 2
Wind_Direction
115 119 118 116 117 120 121 124 125 124 123 119 114 108 101 94 88 84 80 77 75 74 72 69 66 61 53 48 46 46 48 53 59 66 78 86 89 88 83 78 98 102 110
117 119 117 117 119 121 122 123 127 125 122 120 119 114 108 102 95 90 84 80 76 73 69 66 64 60 54 51 49 47 47 42 48 78 118 125 120 109 91 70 67 103 112
114 121 120 118 120 121 122 122 125 125 123 123 122 119 114 108 102 97 90 83 77 72 65 63 59 53 50 47 41 31 18 346 312 278 243 200 143 130 110 92 94 107 114
119 127 121 122 122 121 121 122 124 126 125 125 124 124 122 118 113 106 97 88 76 64 55 52 48 43 38 32 20 356 330 309 296 288 259 224 151 136 128 113 112 118 122
118 118 120 126 124 124 124 124 125 125 126 128 128 127 124 120 116 114 107 96 75 51 36 32 27 19 11 358 343 322 307 299 296 285 274 192 127 142 138 129 129 134 134
124 122 124 126 126 126 127 128 129 130 130 131 130 127 125 121 117 110 105 96 66 13 348 347 347 331 322 316 313 306 301 297 294 280 276 158 136 145 140 141 143 147 152
125 123 127 128 128 129 131 131 131 130 131 132 131 129 129 132 134 139 151 324 317 312 306 307 302 293 293 293 295 294 294 295 282 282 289 143 134 143 145 150 155 159 165
124 124 127 130 131 132 133 133 132 129 129 130 133 138 146 154 171 197 219 265 286 290 287 287 284 280 282 283 282 284 288 291 292 299 309 126 141 149 153 157 163 171 181
124 126 135 138 137 135 134 135 134 136 137 141 147 161 183 202 213 217 217 234 261 276 276 275 275 273 274 274 274 274 278 283 289 288 288 128 143 150 154 158 167 180 191
126 131 138 142 143 146 145 146 147 149 152 160 174 197 218 230 227 224 214 213 233 250 260 264 265 267 267 266 263 262 267 280 271 275 303 114 138 145 150 163 174 186 195
124 126 137 140 146 153 153 152 157 162 170 179 196 220 236 239 230 221 225 206 222 238 249 255 257 260 263 259 254 252 256 253 256 240 91 114 134 144 147 160 173 190 197
126 130 133 133 142 153 150 144 168 173 168 193 204 209 228 252 261 258 187 211 227 239 248 250 256 262 257 256 246 235 243 245 254 200 107 130 141 145 144 161 184 197 209
129 130 129 128 129 137 128 141 160 169 161 189 208 223 227 259 279 277 189 201 235 247 255 259 251 255 255 254 276 227 243 277 352 25 104 120 126 138 145 164 192 203 212
132 132 124 123 125 114 110 128 146 153 154 150 138 297 291 291 315 339 319 295 254 262 270 292 272 271 283 283 277 274 271 284 348 29 119 126 131 142 159 176 198 214 219
133 130 121 116 110 101 94 96 105 83 86 92 79 45 339 351 344 343 337 336 332 333 320 298 298 306 308 309 301 293 301 307 320 341 117 139 146 151 178 193 207 224 225
130 125 123 118 110 103 98 96 88 89 82 77 67 46 356 9 9 343 340 340 339 320 320 303 308 300 293 293 295 307 310 312 309 276 220 166 166 172 189 203 221 234 231
131 130 130 130 119 112 106 102 101 80 74 72 67 48 18 13 7 346 343 343 334 323 316 307 306 305 301 299 296 294 289 280 295 295 253 201 193 185 186 193 206 226 233
135 131 127 131 124 119 107 77 61 54 61 62 64 55 38 19 2 346 345 336 320 312 312 315 331 324 316 309 303 291 275 248 249 263 263 221 206 178 156 160 174 195 214
127 125 123 111 118 123 118 110 88 73 61 58 57 50 34 12 355 346 332 326 318 318 330 327 349 328 311 308 295 276 264 253 236 244 241 245 219 169 156 161 169 194 204
125 124 127 126 122 127 126 127 103 91 80 71 65 48 30 3 357 344 327 337 326 328 329 331 327 312 296 293 308 312 295 274 257 246 259 249 263 198 157 161 168 185 194
126 129 133 131 131 131 134 146 142 113 99 86 82 56 36 3 354 344 345 343 334 334 328 332 325 312 308 308 299 298 288 260 225 198 269 230 189 192 167 145 145 132 161
138 139 134 135 132 136 130 124 123 102 102 93 69 59 26 2 353 351 355 346 339 332 343 337 325 310 307 324 306 297 283 264 312 320 231 202 165 187 176 159 140 124 114
147 143 138 133 128 117 104 104 91 94 104 110 117 85 360 3 6 351 354 351 345 348 345 328 333 323 313 310 294 292 300 297 323 251 324 44 68 185 148 121 114 98 98
153 143 133 132 126 119 126 117 118 131 109 86 97 98 22 19 12 354 359 353 349 349 348 333 356 321 309 307 302 287 286 304 292 282 260 213 223 200 174 132 119 125 127
150 141 137 137 137 132 118 106 112 84 71 73 67 70 139 14 4 351 355 356 348 352 351 346 339 331 322 314 309 304 298 286 260 251 262 239 236 251 171 169 134 129 127
149 146 144 152 149 139 134 128 126 105 80 72 47 19 329 35 19 2 355 353 348 351 342 338 332 325 323 316 309 302 299 296 292 274 260 254 224 215 208 186 168 155 138